GW7237 Weather Reports


Display with metric or nautical units.
time (UTC)temp
F
wind
direction
speed
MPH
gust
MPH
rain 1hr
in
rain 24hr
in
rain mn
in
humidity
%
barometer
mb
20260504060212 51 210 0.0 0.0 0.00 0.00 0.00 43 1011.1
20260504050637 55 198 0.0 1.0 0.00 0.00 0.00 36 1011.5
20260504050132 55 196 0.0 2.0 0.00 0.00 0.00 36 1011.5
20260504045625 55 210 0.0 2.0 0.00 0.00 0.00 36 1011.5
20260504045120 55 189 0.0 2.0 0.00 0.00 0.00 36 1011.5
20260504044614 55 185 0.0 2.0 0.00 0.00 0.00 36 1011.5
20260504044108 55 186 0.0 2.0 0.00 0.00 0.00 36 1011.6
20260504043602 55 142 0.0 0.0 0.00 0.00 0.00 36 1011.6
20260504043056 55 62 0.0 0.0 0.00 0.00 0.00 36 1011.7
20260504042550 54 62 0.0 0.0 0.00 0.00 0.00 36 1011.7
20260504041538 54 61 0.0 0.0 0.00 0.00 0.00 38 1011.9
20260504041033 54 61 0.0 0.0 0.00 0.00 0.00 39 1011.9
20260504040526 54 61 0.0 0.0 0.00 0.00 0.00 38 1011.9
20260504040021 54 61 0.0 0.0 0.00 0.00 0.00 38 1012.0
20260504035514 53 61 0.0 0.0 0.00 0.00 0.00 39 1012.0
20260504035008 53 61 0.0 0.0 0.00 0.00 0.00 40 1012.0
20260504034502 53 61 0.0 0.0 0.00 0.00 0.00 40 1012.0
20260504033451 53 61 0.0 1.0 0.00 0.00 0.00 42 1012.0
20260504032945 54 61 0.0 1.0 0.00 0.00 0.00 40 1011.9
20260504032438 54 61 0.0 1.0 0.00 0.00 0.00 37 1012.0
20260504031933 54 61 0.0 1.0 0.00 0.00 0.00 38 1011.9
20260504031426 54 62 0.0 1.0 0.00 0.00 0.00 38 1011.9
20260504030414 54 62 0.0 0.0 0.00 0.00 0.00 39 1011.9
20260504025402 56 62 0.0 0.0 0.00 0.00 0.00 38 1011.7
20260504024350 56 62 0.0 0.0 0.00 0.00 0.00 35 1011.7
20260504023844 57 62 0.0 0.0 0.00 0.00 0.00 35 1011.7
20260504023341 58 62 0.0 0.0 0.00 0.00 0.00 36 1011.7
20260504022838 58 62 0.0 0.0 0.00 0.00 0.00 33 1011.7
20260504022338 58 62 0.0 1.0 0.00 0.00 0.00 32 1011.6
20260504021336 59 62 0.0 1.0 0.00 0.00 0.00 31 1011.6
20260504020834 59 62 0.0 1.0 0.00 0.00 0.00 30 1011.5
20260504020334 60 62 0.0 1.0 0.00 0.00 0.00 30 1011.5
20260504015333 60 355 0.0 5.0 0.00 0.00 0.00 30 1011.4
20260504014832 61 19 0.0 5.0 0.00 0.00 0.00 29 1011.4
20260504014330 61 317 0.0 1.0 0.00 0.00 0.00 29 1011.4
20260504013833 62 300 0.0 1.0 0.00 0.00 0.00 28 1011.4
20260504013328 62 300 0.0 1.0 0.00 0.00 0.00 27 1011.2
20260504012827 62 300 0.0 5.0 0.00 0.00 0.00 26 1011.4
20260504012327 62 293 1.0 8.0 0.00 0.00 0.00 25 1011.4
20260504011825 63 311 2.0 9.0 0.00 0.00 0.00 25 1011.4
20260504011328 63 295 2.0 13.0 0.00 0.00 0.00 24 1011.5
20260504010826 63 313 2.0 13.0 0.00 0.00 0.00 24 1011.5
20260504010327 63 280 1.0 12.0 0.00 0.00 0.00 25 1011.5
20260504005315 63 298 2.0 9.0 0.00 0.00 0.00 26 1011.5
20260504004809 63 304 1.0 14.0 0.00 0.00 0.00 25 1011.4
20260504003251 64 19 0.0 0.0 0.00 0.00 0.00 24 1011.2
20260504002745 64 323 0.0 0.0 0.00 0.00 0.00 24 1011.1
20260504002240 65 287 0.0 0.0 0.00 0.00 0.00 23 1011.1
20260504001733 65 286 0.0 0.0 0.00 0.00 0.00 21 1011.1
20260504001228 66 306 0.0 0.0 0.00 0.00 0.00 21 1011.1
20260504000721 66 286 0.0 0.0 0.00 0.00 0.00 20 1011.1
20260504000215 66 39 0.0 0.0 0.00 0.00 0.00 20 1011.0
20260503235715 67 44 0.0 3.0 0.00 0.00 0.00 20 1011.1
20260503234215 67 46 0.0 2.0 0.00 0.00 0.00 19 1011.4
20260503233715 67 341 1.0 11.0 0.00 0.00 0.00 19 1011.2
20260503233215 67 281 1.0 11.0 0.00 0.00 0.00 17 1011.4
20260503232715 67 283 1.0 8.0 0.00 0.00 0.00 16 1011.2
20260503231713 68 255 1.0 6.0 0.00 0.00 0.00 16 1011.1
20260503231213 68 273 1.0 12.0 0.00 0.00 0.00 16 1011.1
20260503225711 69 286 1.0 11.0 0.00 0.00 0.00 16 1011.1
20260503225210 69 277 0.0 6.0 0.00 0.00 0.00 16 1011.1
20260503224705 69 260 0.0 6.0 0.00 0.00 0.00 16 1011.1
20260503224210 69 281 0.0 2.0 0.00 0.00 0.00 16 1011.1
20260503223710 69 281 0.0 4.0 0.00 0.00 0.00 18 1011.2
20260503223204 69 304 1.0 4.0 0.00 0.00 0.00 15 1011.2
20260503222658 70 270 1.0 8.0 0.00 0.00 0.00 16 1011.2
20260503222153 71 271 1.0 9.0 0.00 0.00 0.00 16 1011.2
20260503221647 71 34 2.0 17.0 0.00 0.00 0.00 16 1011.4
20260503221141 71 14 2.0 17.0 0.00 0.00 0.00 17 1011.5
20260503220640 71 194 1.0 13.0 0.00 0.00 0.00 16 1011.1
20260503220140 70 319 1.0 10.0 0.00 0.00 0.00 18 1011.6
20260503215641 70 292 2.0 10.0 0.00 0.00 0.00 17 1011.6
20260503215140 69 196 1.0 8.0 0.00 0.00 0.00 17 1011.7
20260503214638 69 315 1.0 7.0 0.00 0.00 0.00 16 1012.0
20260503214137 69 244 1.0 7.0 0.00 0.00 0.00 18 1012.0
20260503213637 69 158 1.0 7.0 0.00 0.00 0.00 16 1012.0
20260503212634 69 200 0.0 2.0 0.00 0.00 0.00 16 1012.1
20260503212134 69 167 0.0 3.0 0.00 0.00 0.00 15 1012.2
20260503211635 69 297 0.0 3.0 0.00 0.00 0.00 17 1012.2
20260503211131 69 258 1.0 7.0 0.00 0.00 0.00 15 1012.3
20260503210631 70 262 2.0 11.0 0.00 0.00 0.00 15 1012.5
20260503205630 70 280 3.0 13.0 0.00 0.00 0.00 16 1012.6
20260503205129 70 132 3.0 13.0 0.00 0.00 0.00 16 1012.6
20260503204129 69 133 2.0 9.0 0.00 0.00 0.00 15 1012.8
20260503203630 69 175 2.0 9.0 0.00 0.00 0.00 17 1012.9
20260503203132 69 130 2.0 10.0 0.00 0.00 0.00 17 1013.1
20260503202626 69 134 2.0 10.0 0.00 0.00 0.00 16 1013.1
20260503201626 67 101 1.0 8.0 0.00 0.00 0.00 17 1013.2
20260503201127 68 143 2.0 11.0 0.00 0.00 0.00 16 1013.3
20260503200625 67 251 2.0 11.0 0.00 0.00 0.00 16 1013.3
20260503200125 68 278 2.0 11.0 0.00 0.00 0.00 15 1013.4
20260503195125 68 263 2.0 10.0 0.00 0.00 0.00 17 1013.6
20260503194627 68 254 1.0 9.0 0.00 0.00 0.00 17 1013.6
20260503194124 68 290 0.0 6.0 0.00 0.00 0.00 14 1013.6
20260503193124 68 304 1.0 4.0 0.00 0.00 0.00 16 1013.7
20260503192621 68 181 1.0 4.0 0.00 0.00 0.00 16 1013.9
20260503192121 68 78 1.0 6.0 0.00 0.00 0.00 16 1013.9
20260503191121 67 302 1.0 5.0 0.00 0.00 0.00 17 1014.2
20260503190622 67 41 1.0 7.0 0.00 0.00 0.00 18 1014.3
20260503190122 67 5 1.0 7.0 0.00 0.00 0.00 18 1014.4
20260503185625 68 298 1.0 7.0 0.00 0.00 0.00 16 1014.5
20260503185118 68 273 1.0 5.0 0.00 0.00 0.00 18 1014.6
20260503184611 68 44 1.0 5.0 0.00 0.00 0.00 18 1014.6
20260503184105 67 329 1.0 8.0 0.00 0.00 0.00 21 1014.8
20260503183054 67 265 1.0 11.0 0.00 0.00 0.00 19 1015.0
20260503182547 66 37 2.0 8.0 0.00 0.00 0.00 22 1015.0
20260503182046 65 10 2.0 8.0 0.00 0.00 0.00 21 1015.1
20260503181545 65 313 2.0 10.0 0.00 0.00 0.00 21 1015.1
20260503181047 65 313 2.0 10.0 0.00 0.00 0.00 21 1015.1
20260503180546 65 263 1.0 10.0 0.00 0.00 0.00 22 1015.3
20260503175545 65 241 1.0 11.0 0.00 0.00 0.00 20 1015.5
20260503174544 65 250 3.0 11.0 0.00 0.00 0.00 22 1015.6
20260503172539 63 238 3.0 14.0 0.00 0.00 0.00 23 1016.0
20260503171538 63 246 2.0 13.0 0.00 0.00 0.00 22 1016.3
20260503171036 63 281 2.0 13.0 0.00 0.00 0.00 22 1016.3
20260503170535 63 254 2.0 9.0 0.00 0.00 0.00 22 1016.3
20260503150831 59 208 0.0 1.0 0.00 0.00 0.00 30 1016.8
20260503140213 55 214 0.0 1.0 0.00 0.00 0.00 34 1017.0
20260503131112 53 249 0.0 2.0 0.00 0.00 0.00 37 1017.0
20260503130606 52 249 1.0 2.0 0.00 0.00 0.00 37 1017.0
20260503110342 48 205 0.0 0.0 0.00 0.00 0.00 38 1016.1
20260503090302 49 220 0.0 1.0 0.00 0.00 0.00 36 1016.5
20260503081256 43 202 0.0 1.0 0.00 0.00 0.00 45 1016.6
20260503080757 43 202 0.0 1.0 0.00 0.00 0.00 45 1016.6
20260503072756 50 179 1.0 5.0 0.00 0.00 0.00 34 1016.7
20260503071757 50 173 1.0 4.0 0.00 0.00 0.00 33 1016.8
20260503070758 50 195 1.0 5.0 0.00 0.00 0.00 33 1016.8
20260503070258 51 194 1.0 4.0 0.00 0.00 0.00 33 1016.8